Denver Centennial, CO

6:38 AM MDT on April 23, 2017 (GMT -0600)
Centennial

Weather History for KAPA - December, 2013

Change the Weather History Date:

Tuesday, December 24, 2013

  Actual Average Record
Temperature  
Mean Temperature 37 °F -  
Max Temperature 54 °F 41 °F 59 °F (2016)
Min Temperature 19 °F 19 °F -9 °F (1998)
Degree Days  
Heating Degree Days 28    
Month to date heating degree days 936  
Moisture  
Dew Point 17 °F    
Average Humidity 46    
Maximum Humidity 69    
Minimum Humidity 22    
Precipitation  
Precipitation 0.00 in - - ()
Month to date precipitation 0.14  
Year to date precipitation 17.43  
Sea Level Pressure  
Sea Level Pressure 30.13 in    
Wind  
Wind Speed 12 mph (WSW)    
Max Wind Speed 32 mph    
Max Gust Speed 44 mph    
Visibility 10 miles    
Events      
Averages and records for this station are not official NWS values.
T = Trace of Precipitation, MM = Missing Value Source: NWS Daily Summary

Daily Weather History Graph

Daily Weather History Graph

Search for Another Location

Airport or City:

Trip Planner

Search our weather history database for the weather conditions in past years. The results will help you decide how hot, cold, wet, or windy it might be!

Date:

Astronomy

Dec. 24, 2013 Rise Set
Actual Time 7:17 AM MST 4:40 PM MST
Civil Twilight 6:47 AM MST 5:10 PM MST
Nautical Twilight 6:13 AM MST 5:44 PM MST
Astronomical Twilight 5:40 AM MST 6:17 PM MST
Moon 11:49 PM MST (12/24) 11:14 AM MST (12/24)
Length of Visible Light 10h 23m
Length of Day
9h 22m
Waning Gibbous, 58% of the Moon is Illuminated
Dec 24
Waning Gibbous
Dec 25
Last Quarter
Jan 1
New
Jan 7
First Quarter
Jan 15
Full

Hourly Weather History & Observations

Time (MST) Temp. Windchill Dew Point Humidity Pressure Visibility Wind Dir Wind Speed Gust Speed Precip Events Conditions
12:53 AM 41.0 °F 33.9 °F 19.0 °F 41% 30.08 in 10.0 mi SW 12.7 mph - N/A   Mostly Cloudy
1:53 AM 42.1 °F 34.9 °F 19.0 °F 40% 30.04 in 10.0 mi SW 13.8 mph - N/A   Mostly Cloudy
2:53 AM 42.1 °F 33.6 °F 19.0 °F 40% 30.02 in 10.0 mi SW 18.4 mph 25.3 mph N/A   Mostly Cloudy
3:53 AM 42.1 °F 34.5 °F 19.9 °F 41% 30.01 in 10.0 mi WSW 15.0 mph 23.0 mph N/A   Mostly Cloudy
4:53 AM 39.0 °F 31.8 °F 19.9 °F 46% 30.01 in 10.0 mi WSW 11.5 mph - N/A   Partly Cloudy
5:53 AM 39.9 °F 36.7 °F 19.0 °F 43% 30.02 in 10.0 mi SSW 4.6 mph - N/A   Partly Cloudy
6:53 AM 39.0 °F 32.8 °F 19.0 °F 45% 30.06 in 10.0 mi SSW 9.2 mph - N/A   Scattered Clouds
7:53 AM 37.0 °F 32.4 °F 19.9 °F 50% 30.07 in 10.0 mi SSE 5.8 mph - N/A   Scattered Clouds
8:53 AM 42.1 °F 39.2 °F 21.9 °F 45% 30.05 in 10.0 mi East 4.6 mph - N/A   Scattered Clouds
9:53 AM 50.0 °F - 17.1 °F 27% 30.01 in 10.0 mi SW 4.6 mph - N/A   Scattered Clouds
10:53 AM 53.1 °F - 15.1 °F 22% 29.97 in 10.0 mi WNW 20.7 mph 29.9 mph N/A   Scattered Clouds
11:53 AM 53.1 °F - 16.0 °F 23% 29.94 in 10.0 mi NW 12.7 mph 26.5 mph N/A   Scattered Clouds
12:53 PM 51.1 °F - 21.0 °F 31% 29.99 in 10.0 mi NW 26.5 mph 36.8 mph N/A   Mostly Cloudy
1:53 PM 45.0 °F 35.8 °F 15.1 °F 30% 30.06 in 10.0 mi NW 26.5 mph 34.5 mph N/A   Mostly Cloudy
2:13 PM 34.0 °F 24.6 °F 25.0 °F 70% 30.10 in 10.0 mi NE 13.8 mph 21.9 mph N/A   Mostly Cloudy
2:53 PM 33.1 °F 26.9 °F 25.0 °F 72% 30.18 in 10.0 mi NE 6.9 mph - N/A   Mostly Cloudy
3:53 PM 36.0 °F 27.5 °F 24.1 °F 62% 30.21 in 10.0 mi NNE 12.7 mph - N/A   Mostly Cloudy
4:53 PM 33.1 °F 21.9 °F 19.0 °F 56% 30.26 in 10.0 mi NNE 18.4 mph 23.0 mph N/A   Scattered Clouds
5:53 PM 30.9 °F 22.2 °F 17.1 °F 57% 30.30 in 10.0 mi North 10.4 mph - N/A   Scattered Clouds
6:53 PM 30.0 °F 25.2 °F 16.0 °F 56% 30.32 in 10.0 mi NE 4.6 mph - N/A   Partly Cloudy
7:53 PM 28.9 °F 21.1 °F 10.0 °F 45% 30.34 in 10.0 mi WNW 8.1 mph - N/A   Partly Cloudy
8:53 PM 27.0 °F 23.0 °F 9.0 °F 47% 30.32 in 10.0 mi SSW 3.5 mph - N/A   Partly Cloudy
9:53 PM 24.1 °F 17.0 °F 9.0 °F 53% 30.30 in 10.0 mi South 5.8 mph - N/A   Clear
10:53 PM 21.9 °F 11.7 °F 9.0 °F 58% 30.29 in 10.0 mi South 9.2 mph - N/A   Clear
11:53 PM 21.9 °F 11.7 °F 10.9 °F 63% 30.29 in 10.0 mi South 9.2 mph - N/A   Clear